Time,TemperatureF,DewpointF,PressureIn,WindDirection,WindDirectionDegrees,WindSpeedMPH,WindSpeedGustMPH,Humidity,HourlyPrecipIn,Conditions,Clouds,dailyrainin,SoftwareType,DateUTC
2013-01-30 00:02:00,40.3,38.2,30.21,West,261,0.0,1.0,92,0.00,CLR,,0.00,WeatherDisplay:10.37,2013-01-30 08:02:00,
2013-01-30 00:17:00,41.4,39.5,30.20,NW,317,1.0,3.0,93,0.00,CLR,,0.00,WeatherDisplay:10.37,2013-01-30 08:17:00,
2013-01-30 00:32:00,43.2,41.4,30.19,ENE,57,0.0,4.0,93,0.00,CLR,,0.00,WeatherDisplay:10.37,2013-01-30 08:32:00,
2013-01-30 00:47:00,44.5,42.3,30.19,NE,56,0.0,2.0,92,0.00,CLR,,0.00,WeatherDisplay:10.37,2013-01-30 08:47:00,
2013-01-30 01:02:00,45.7,42.7,30.19,ENE,69,0.0,2.0,89,0.00,CLR,,0.00,WeatherDisplay:10.37,2013-01-30 09:02:00,
2013-01-30 01:17:00,45.4,41.8,30.18,East,95,0.0,4.0,87,0.00,CLR,,0.00,WeatherDisplay:10.37,2013-01-30 09:17:00,
2013-01-30 01:32:00,45.2,41.3,30.18,East,86,0.0,1.0,86,0.00,CLR,,0.00,WeatherDisplay:10.37,2013-01-30 09:32:00,
2013-01-30 01:47:00,45.1,41.2,30.18,NNW,327,0.0,3.0,86,0.00,CLR,,0.00,WeatherDisplay:10.37,2013-01-30 09:47:00,
2013-01-30 02:02:00,44.5,40.6,30.18,SSE,162,0.0,3.0,86,0.00,CLR,,0.00,WeatherDisplay:10.37,2013-01-30 10:02:00,
2013-01-30 02:17:00,43.6,39.7,30.18,SSE,158,0.0,2.0,86,0.00,CLR,,0.00,WeatherDisplay:10.37,2013-01-30 10:17:00,
2013-01-30 02:32:00,43.5,39.6,30.18,South,183,0.0,2.0,86,0.00,CLR,,0.00,WeatherDisplay:10.37,2013-01-30 10:32:00,
2013-01-30 02:47:00,43.5,39.9,30.18,South,190,0.0,1.0,87,0.00,CLR,,0.00,WeatherDisplay:10.37,2013-01-30 10:47:00,
2013-01-30 03:02:00,43.5,39.9,30.18,South,189,0.0,1.0,87,0.00,CLR,,0.00,WeatherDisplay:10.37,2013-01-30 11:02:00,
2013-01-30 03:17:00,43.2,39.6,30.19,SSW,192,0.0,2.0,87,0.00,CLR,,0.00,WeatherDisplay:10.37,2013-01-30 11:17:00,
2013-01-30 03:32:00,43.2,39.6,30.19,SW,221,0.0,1.0,87,0.00,CLR,,0.00,WeatherDisplay:10.37,2013-01-30 11:32:00,
2013-01-30 03:47:00,43.1,39.5,30.19,SSW,200,0.0,0.0,87,0.00,CLR,,0.00,WeatherDisplay:10.37,2013-01-30 11:47:00,
2013-01-30 04:02:00,42.8,39.2,30.19,SW,230,0.0,3.0,87,0.00,CLR,,0.00,WeatherDisplay:10.37,2013-01-30 12:02:00,
2013-01-30 04:17:00,42.5,39.2,30.19,SW,231,0.0,1.0,88,0.00,CLR,,0.00,WeatherDisplay:10.37,2013-01-30 12:17:00,
2013-01-30 04:32:00,42.6,39.6,30.19,SW,230,0.0,2.0,89,0.00,CLR,,0.00,WeatherDisplay:10.37,2013-01-30 12:32:00,
2013-01-30 04:47:00,43.1,40.1,30.19,SW,232,0.0,2.0,89,0.00,CLR,,0.00,WeatherDisplay:10.37,2013-01-30 12:47:00,
2013-01-30 05:02:00,43.3,40.3,30.19,SW,234,0.0,2.0,89,0.00,CLR,,0.00,WeatherDisplay:10.37,2013-01-30 13:02:00,
2013-01-30 05:17:00,43.2,40.2,30.19,SW,234,0.0,0.0,89,0.00,CLR,,0.00,WeatherDisplay:10.37,2013-01-30 13:17:00,
2013-01-30 05:32:00,42.8,39.8,30.19,SW,234,0.0,1.0,89,0.00,CLR,,0.00,WeatherDisplay:10.37,2013-01-30 13:32:00,
2013-01-30 05:47:00,42.3,39.3,30.20,SW,234,0.0,1.0,89,0.00,CLR,,0.00,WeatherDisplay:10.37,2013-01-30 13:47:00,
2013-01-30 06:02:00,41.9,38.9,30.20,SW,234,0.0,1.0,89,0.00,CLR,,0.00,WeatherDisplay:10.37,2013-01-30 14:02:00,
2013-01-30 06:17:00,41.6,38.6,30.21,SW,234,0.0,1.0,89,0.00,CLR,,0.00,WeatherDisplay:10.37,2013-01-30 14:17:00,
2013-01-30 06:32:00,41.3,38.6,30.21,SW,233,0.0,1.0,90,0.00,CLR,,0.00,WeatherDisplay:10.37,2013-01-30 14:32:00,
2013-01-30 06:47:00,41.2,38.5,30.21,SW,233,0.0,0.0,90,0.00,CLR,,0.00,WeatherDisplay:10.37,2013-01-30 14:47:00,
2013-01-30 07:02:00,41.2,38.5,30.22,SW,233,0.0,0.0,90,0.00,CLR,,0.00,WeatherDisplay:10.37,2013-01-30 15:02:00,
2013-01-30 07:17:00,40.9,38.2,30.23,SW,233,0.0,0.0,90,0.00,CLR,,0.00,WeatherDisplay:10.37,2013-01-30 15:17:00,
2013-01-30 07:32:00,40.8,38.4,30.24,SW,233,0.0,1.0,91,0.00,CLR,,0.00,WeatherDisplay:10.37,2013-01-30 15:32:00,
2013-01-30 07:47:00,40.6,38.2,30.25,SW,234,0.0,1.0,91,0.00,CLR,,0.00,WeatherDisplay:10.37,2013-01-30 15:47:00,
2013-01-30 08:02:00,40.6,38.2,30.25,SW,234,0.0,0.0,91,0.00,CLR,,0.00,WeatherDisplay:10.37,2013-01-30 16:02:00,
2013-01-30 08:17:00,40.5,38.1,30.26,SW,234,0.0,0.0,91,0.00,CLR,,0.00,WeatherDisplay:10.37,2013-01-30 16:17:00,
2013-01-30 08:32:00,40.3,37.9,30.27,SW,234,0.0,0.0,91,0.00,CLR,,0.00,WeatherDisplay:10.37,2013-01-30 16:32:00,
2013-01-30 08:47:00,40.3,38.2,30.28,SW,234,0.0,0.0,92,0.00,CLR,,0.00,WeatherDisplay:10.37,2013-01-30 16:47:00,
2013-01-30 09:02:00,40.3,38.2,30.28,SW,234,0.0,0.0,92,0.00,CLR,,0.00,WeatherDisplay:10.37,2013-01-30 17:02:00,
2013-01-30 09:17:00,40.5,38.4,30.28,SW,234,0.0,0.0,92,0.00,CLR,,0.00,WeatherDisplay:10.37,2013-01-30 17:17:00,
2013-01-30 09:32:00,41.3,39.2,30.28,SW,234,0.0,0.0,92,0.00,CLR,,0.00,WeatherDisplay:10.37,2013-01-30 17:32:00,
2013-01-30 09:47:00,42.7,40.8,30.29,SW,234,0.0,0.0,93,0.00,CLR,,0.00,WeatherDisplay:10.37,2013-01-30 17:47:00,
2013-01-30 10:02:00,44.2,42.3,30.29,SW,234,0.0,0.0,93,0.00,CLR,,0.00,WeatherDisplay:10.37,2013-01-30 18:02:00,
2013-01-30 10:17:00,46.0,43.8,30.29,SW,233,0.0,0.0,92,0.00,CLR,,0.00,WeatherDisplay:10.37,2013-01-30 18:17:00,
2013-01-30 10:32:00,47.3,44.2,30.29,SW,234,0.0,0.0,89,0.00,CLR,,0.00,WeatherDisplay:10.37,2013-01-30 18:32:00,
2013-01-30 10:47:00,48.5,43.9,30.28,SW,224,0.0,0.0,84,0.00,CLR,,0.00,WeatherDisplay:10.37,2013-01-30 18:47:00,
2013-01-30 11:02:00,49.2,43.9,30.28,SW,224,0.0,0.0,82,0.00,CLR,,0.00,WeatherDisplay:10.37,2013-01-30 19:02:00,
2013-01-30 11:17:00,50.0,44.0,30.27,SW,224,0.0,0.0,80,0.00,CLR,,0.00,WeatherDisplay:10.37,2013-01-30 19:17:00,
2013-01-30 11:32:00,50.8,44.5,30.27,SW,223,0.0,0.0,79,0.00,CLR,,0.00,WeatherDisplay:10.37,2013-01-30 19:32:00,
2013-01-30 11:47:00,51.8,44.8,30.26,SW,223,0.0,0.0,77,0.00,CLR,,0.00,WeatherDisplay:10.37,2013-01-30 19:47:00,
2013-01-30 12:02:00,52.9,45.2,30.25,SW,223,0.0,0.0,75,0.00,CLR,,0.00,WeatherDisplay:10.37,2013-01-30 20:02:00,
2013-01-30 12:17:00,53.6,45.2,30.24,SW,223,0.0,0.0,73,0.00,CLR,,0.00,WeatherDisplay:10.37,2013-01-30 20:17:00,
2013-01-30 12:32:00,54.6,45.4,30.23,SW,224,0.0,0.0,71,0.00,CLR,,0.00,WeatherDisplay:10.37,2013-01-30 20:32:00,
2013-01-30 12:47:00,55.4,45.8,30.22,SW,223,0.0,0.0,70,0.00,CLR,,0.00,WeatherDisplay:10.37,2013-01-30 20:47:00,
2013-01-30 13:02:00,56.7,46.2,30.22,SW,226,0.0,1.0,68,0.00,CLR,,0.00,WeatherDisplay:10.37,2013-01-30 21:02:00,
2013-01-30 13:17:00,59.0,46.4,30.20,WSW,244,0.0,2.0,63,0.00,CLR,,0.00,WeatherDisplay:10.37,2013-01-30 21:17:00,
2013-01-30 13:32:00,58.4,45.9,30.20,WSW,244,0.0,1.0,63,0.00,CLR,,0.00,WeatherDisplay:10.37,2013-01-30 21:32:00,
2013-01-30 13:47:00,61.2,46.8,30.20,WSW,244,0.0,3.0,59,0.00,CLR,,0.00,WeatherDisplay:10.37,2013-01-30 21:47:00,
2013-01-30 14:02:00,61.7,43.9,30.20,WSW,248,0.0,4.0,52,0.00,CLR,,0.00,WeatherDisplay:10.37,2013-01-30 22:02:00,
2013-01-30 14:17:00,59.9,46.4,30.20,WNW,297,0.0,1.0,61,0.00,CLR,,0.00,WeatherDisplay:10.37,2013-01-30 22:17:00,
2013-01-30 14:32:00,59.7,45.4,30.19,WNW,293,0.0,1.0,59,0.00,CLR,,0.00,WeatherDisplay:10.37,2013-01-30 22:32:00,
2013-01-30 14:47:00,60.5,45.6,30.19,WNW,302,0.0,1.0,58,0.00,CLR,,0.00,WeatherDisplay:10.37,2013-01-30 22:47:00,
2013-01-30 15:02:00,60.1,46.2,30.20,NW,310,0.0,1.0,60,0.00,CLR,,0.00,WeatherDisplay:10.37,2013-01-30 23:02:00,
2013-01-30 15:17:00,59.3,46.3,30.20,NW,310,0.0,0.0,62,0.00,CLR,,0.00,WeatherDisplay:10.37,2013-01-30 23:17:00,
2013-01-30 15:32:00,58.4,46.3,30.20,NW,310,0.0,0.0,64,0.00,CLR,,0.00,WeatherDisplay:10.37,2013-01-30 23:32:00,
2013-01-30 15:47:00,58.0,46.3,30.20,NW,310,0.0,0.0,65,0.00,CLR,,0.00,WeatherDisplay:10.37,2013-01-30 23:47:00,
2013-01-30 16:02:00,57.5,47.0,30.20,NW,310,0.0,0.0,68,0.00,CLR,,0.00,WeatherDisplay:10.37,2013-01-31 00:02:00,
2013-01-30 16:17:00,56.9,47.2,30.20,NW,310,0.0,0.0,70,0.00,CLR,,0.00,WeatherDisplay:10.37,2013-01-31 00:17:00,
2013-01-30 16:32:00,56.0,47.1,30.20,NW,310,0.0,0.0,72,0.00,CLR,,0.00,WeatherDisplay:10.37,2013-01-31 00:32:00,
2013-01-30 16:47:00,55.1,46.6,30.20,NW,310,0.0,0.0,73,0.00,CLR,,0.00,WeatherDisplay:10.37,2013-01-31 00:47:00,
2013-01-30 17:02:00,54.2,46.4,30.20,NW,310,0.0,0.0,75,0.00,CLR,,0.00,WeatherDisplay:10.37,2013-01-31 01:02:00,
2013-01-30 17:17:00,53.2,46.5,30.20,NW,310,0.0,0.0,78,0.00,CLR,,0.00,WeatherDisplay:10.37,2013-01-31 01:17:00,
2013-01-30 17:32:00,52.0,46.4,30.20,NW,310,0.0,0.0,81,0.00,CLR,,0.00,WeatherDisplay:10.37,2013-01-31 01:32:00,
2013-01-30 17:47:00,51.0,46.0,30.20,NW,310,0.0,0.0,83,0.00,CLR,,0.00,WeatherDisplay:10.37,2013-01-31 01:47:00,
2013-01-30 18:02:00,50.0,45.3,30.20,NW,310,0.0,0.0,84,0.00,CLR,,0.00,WeatherDisplay:10.37,2013-01-31 02:02:00,
2013-01-30 18:17:00,49.2,44.9,30.21,NW,310,0.0,0.0,85,0.00,CLR,,0.00,WeatherDisplay:10.37,2013-01-31 02:17:00,
2013-01-30 18:32:00,48.5,44.5,30.20,NW,310,0.0,0.0,86,0.00,CLR,,0.00,WeatherDisplay:10.37,2013-01-31 02:32:00,
2013-01-30 18:47:00,47.7,43.7,30.21,NW,310,0.0,0.0,86,0.00,CLR,,0.00,WeatherDisplay:10.37,2013-01-31 02:47:00,
2013-01-30 19:02:00,47.0,43.3,30.21,NW,310,0.0,0.0,87,0.00,CLR,,0.00,WeatherDisplay:10.37,2013-01-31 03:02:00,
2013-01-30 19:17:00,46.4,42.7,30.21,NW,310,0.0,0.0,87,0.00,CLR,,0.00,WeatherDisplay:10.37,2013-01-31 03:17:00,
2013-01-30 19:32:00,45.7,42.4,30.21,NW,310,0.0,0.0,88,0.00,CLR,,0.00,WeatherDisplay:10.37,2013-01-31 03:32:00,
2013-01-30 19:47:00,45.1,41.8,30.21,NW,310,0.0,0.0,88,0.00,CLR,,0.00,WeatherDisplay:10.37,2013-01-31 03:47:00,
2013-01-30 20:02:00,44.5,41.5,30.22,NW,310,0.0,0.0,89,0.00,CLR,,0.00,WeatherDisplay:10.37,2013-01-31 04:02:00,
2013-01-30 20:17:00,43.9,40.9,30.22,NW,310,0.0,0.0,89,0.00,CLR,,0.00,WeatherDisplay:10.37,2013-01-31 04:17:00,
2013-01-30 20:32:00,43.3,40.3,30.23,NW,310,0.0,0.0,89,0.00,CLR,,0.00,WeatherDisplay:10.37,2013-01-31 04:32:00,
2013-01-30 20:47:00,42.8,40.1,30.23,NW,310,0.0,0.0,90,0.00,CLR,,0.00,WeatherDisplay:10.37,2013-01-31 04:47:00,
2013-01-30 21:02:00,42.2,39.5,30.22,NW,310,0.0,0.0,90,0.00,CLR,,0.00,WeatherDisplay:10.37,2013-01-31 05:02:00,
2013-01-30 21:15:00,56.0,46.7,30.16,NW,315,0.0,0.0,71,0.00,CLR,,0.00,WeatherDisplay:10.37,2013-01-31 05:15:00,
2013-01-30 21:17:00,41.6,38.9,30.22,NW,310,0.0,0.0,90,0.00,CLR,,0.00,WeatherDisplay:10.37,2013-01-31 05:17:00,
2013-01-30 21:30:00,56.9,46.8,30.15,NW,315,0.0,0.0,69,0.00,CLR,,0.00,WeatherDisplay:10.37,2013-01-31 05:30:00,
2013-01-30 21:32:00,41.2,38.5,30.22,NW,310,0.0,0.0,90,0.00,CLR,,0.00,WeatherDisplay:10.37,2013-01-31 05:32:00,
2013-01-30 21:45:00,57.8,47.3,30.14,NW,315,0.0,1.0,68,0.00,CLR,,0.00,WeatherDisplay:10.37,2013-01-31 05:45:00,
2013-01-30 21:47:00,40.9,38.2,30.21,NW,310,0.0,0.0,90,0.00,CLR,,0.00,WeatherDisplay:10.37,2013-01-31 05:47:00,
2013-01-30 22:02:00,40.6,38.2,30.21,NW,310,0.0,0.0,91,0.00,CLR,,0.00,WeatherDisplay:10.37,2013-01-31 06:02:00,
2013-01-30 22:17:00,40.2,37.8,30.21,NW,310,0.0,0.0,91,0.00,CLR,,0.00,WeatherDisplay:10.37,2013-01-31 06:17:00,
2013-01-30 22:32:00,39.9,37.5,30.21,NW,310,0.0,0.0,91,0.00,CLR,,0.00,WeatherDisplay:10.37,2013-01-31 06:32:00,
2013-01-30 22:47:00,39.6,37.2,30.22,NW,310,0.0,0.0,91,0.00,CLR,,0.00,WeatherDisplay:10.37,2013-01-31 06:47:00,
2013-01-30 23:02:00,39.5,37.1,30.22,NW,310,0.0,0.0,91,0.00,CLR,,0.00,WeatherDisplay:10.37,2013-01-31 07:02:00,
2013-01-30 23:17:00,39.2,36.8,30.22,NW,310,0.0,0.0,91,0.00,CLR,,0.00,WeatherDisplay:10.37,2013-01-31 07:17:00,
2013-01-30 23:32:00,38.9,36.5,30.22,NW,310,0.0,0.0,91,0.00,CLR,,0.00,WeatherDisplay:10.37,2013-01-31 07:32:00,
2013-01-30 23:47:00,38.6,36.2,30.21,NW,310,0.0,0.0,91,0.00,CLR,,0.00,WeatherDisplay:10.37,2013-01-31 07:47:00,